Location: Kapla
(46.2483°N, 15.0094°E)
Time: 20:09:38
(UTC+00:00)

Cosmos 2263 Rocket - Pass Details

Date: 03 March 2021
Orbit: 825 x 847 km, 71.0° (Epoch: 22 April)

Event Time Altitude Azimuth Distance (km) Brightness Sun altitude
Rises 17:48:13 0° 326° (NW) 3,371 5.9 -11.0°
Reaches altitude 10° 17:50:51 10° 317° (NW) 2,433 5.3 -11.5°
Maximum altitude 17:55:47 34° 255° (WSW) 1,336 4.0 -12.3°
Drops below altitude 10° 18:00:44 10° 192° (SSW) 2,422 4.7 -13.2°
Sets 18:03:20 0° 183° (S) 3,353 5.3 -13.6°
